Location: Unspecified
(0.0000°N, 0.0000°E)
Time: 10:40:04
(UTC+02:00)

Palapa 6 Rocket - Visible Passes

Search period start: 28 July 2015 00:00
Search period end: 07 August 2015 00:00
Orbit: 485 x 1226 km, 22.7° (Epoch: 27 July)

Date Brightness Start Highest point End Pass type
(mag) Time Alt. Az. Time Alt. Az. Time Alt. Az.
28 Jul 5.3 05:59:00 16° NNE 05:59:00 16° NNE 06:00:25 10° NNE visible
28 Jul 6.1 20:35:03 10° SSW 20:37:01 11° SSW 20:38:44 10° S visible
29 Jul 5.8 05:46:41 11° NNE 05:46:41 11° NNE 05:46:49 10° NNE visible
01 Aug 6.0 21:33:43 10° S 21:34:59 11° S 21:35:38 10° S visible
02 Aug 5.9 21:19:14 10° SSW 21:21:49 12° S 21:23:23 11° SSE visible
03 Aug 5.9 21:05:08 10° SSW 21:08:37 14° S 21:11:11 11° SSE visible
04 Aug 5.9 20:51:10 10° SSW 20:55:23 16° S 20:59:02 11° SE visible
04 Aug 6.2 22:39:42 10° SW 22:41:01 15° SSW 22:41:01 15° SSW visible
05 Aug 5.9 20:37:16 10° SSW 20:42:07 18° S 20:46:45 10° SE visible
05 Aug 5.7 22:25:54 10° SW 22:28:56 22° SSW 22:28:56 22° SSW visible
06 Aug 5.8 20:23:27 10° SSW 20:28:50 20° SSE 20:33:58 10° ESE visible
06 Aug 5.2 22:12:07 10° SW 22:16:55 32° SSW 22:16:55 32° SSW visible
